カタログに戻る

STARLINK-32114

運用中通信VLEO
NORAD 60287·PAYLOAD·🇺🇸 United States

打ち上げ Jul 28, 2024 から Cape Canaveral Space Force Station

Loading…

次のパス (今後24時間)

TLE

最新Source: CelesTrak SupGP

元期: Sep 14, 2026, 22:23 UTC

1 60287C 24132K   26257.93312500  .00035666  00000+0  11468-2 0  2574
2 60287  53.1583 252.4502 0001338  90.7631  66.1044 15.31686865    12

AllMySatでSTARLINK-32114をリアルタイム追跡

Download on the App Store